sat.trackr.live / text

‹ back to catalog

DEIMOS-2

NORAD 40013 · 2014-033D

PAYLOAD ACTIVE UNKNOWN

§ Identity

Operator
Country
SPN
Launch date
2014-06-19
Launch site
DLS
Launch vehicle
Mass (kg)
RCS (m²)
1.80

Purposes: earth_obs

External: N2YO · Heavens-Above · Gunter

§ Orbital elements

Epoch: 2026-09-20T03:58:21.353088Z

Period
96.39 min
Inclination
97.5664°
Eccentricity
0.0002039
Mean motion
14.93931211 rev/d
Perigee alt
584.3 km
Apogee alt
587.1 km
Semi-major
6,963.8 km
B*
1.9059e-5
RAAN
134.2545°
Arg perigee
53.6739°
Mean anomaly
306.4669°
Rev number
65,190

§ Raw data

DEIMOS-21 40013U 14033D   26263.16552492  .00000149  00000+0  19059-4 0  99932 40013  97.5664 134.2545 0002039  53.6739 306.4669 14.93931211651907

JSON: /api/v1/satellites/40013 · /tle

For live sub-satellite position, see the globe view (requires WebGL).

§ Visibility from observer

Set your observer location to see the next 7 days of passes ≥ 10°. The values pass through the URL so the page stays shareable.

No JS? Fill the form by hand. The geolocation button needs JavaScript.

§ Radio — SatNOGS DB

ModeDescriptionDownlinkUplink
BPSK S-band telemetry 2.224 GHz

1 transmitter · refreshed weekly from db.satnogs.org